Regional Weather Roundup
Issued by NWS Kansas City/Pleasant Hill, MO

Home | Current Version | Previous Version | Text Only | Print | Product List | Glossary On
Versions: 1 2 3 4 5 6 7 8 9 10 11 12 13 14 15 16 17 18 19 20 21 22 23 24 25 26 27 28 29 30 31 32 33 34 35 36 37 38 39 40 41 42 43 44 45 46 47 48 49 50
000
ASUS43 KEAX 301004
RWREAX

WEATHER ROUNDUP FOR EASTERN KANSAS AND NORTHWEST MISSOURI
NATIONAL WEATHER SERVICE KANSAS CITY/PLEASANT HILL MO
500 AM CDT TUE JUN 30 2015

KSZ040-057-103>105-MOZ028-029-037-043-301100-
...KANSAS CITY METROPOLITAN AREA...

CITY           SKY/WX    TMP DP  RH WIND       PRES   REMARKS
K.C. INTL      CLOUDY    67  64  90 SW8       29.92S
K.C. DOWNTOWN  PTCLDY    72  67  84 SW6       29.91S
LEES SUMMIT    CLEAR     67  63  87 SW5       29.93S
OLATHE - IXD   PTCLDY    70  63  78 W5        29.94S
OLATHE - OJC   PTCLDY    67  63  87 CALM      29.93S
LAWRENCE       PTCLDY    62  61  96 NW3       29.93S FOG

$$

MOZ001>008-011>017-020>025-030>033-038>040-044>046-053-054-301100-
...NORTHERN AND CENTRAL MISSOURI...

CITY           SKY/WX    TMP DP  RH WIND       PRES   REMARKS
ST. JOSEPH     CLEAR     66  64  93 CALM      29.91F
MOSBY          MOSUNNY   66  64  94 CALM      29.91S FOG
HARRISONVILLE  CLEAR     68  66  94 CALM      29.95S
WHITEMAN AFB   CLEAR     69  65  85 W6        29.90S
CLINTON        CLEAR     70  66  88 W6        29.93R
SEDALIA        CLEAR     68  64  87 CALM      29.92S
WARSAW         FAIR      68  66  94 CALM      29.93R
CHILLICOTHE      N/A     66  64  93 CALM      29.91S
KIRKSVILLE     CLEAR     66  63  90 SW5       29.89S

$$

MOZ041-047>049-056>058-063>065-088>090-097-301100-
...EASTERN AND SOUTHERN MISSOURI...

CITY           SKY/WX    TMP DP  RH WIND       PRES   REMARKS
ST. LOUIS INTL PTCLDY    71  66  84 W5        29.87S
SPIRIT OF STL  CLEAR     67  66  97 CALM      29.87R FOG
COLUMBIA       CLEAR     69  65  86 W6        29.91R
JEFFERSON CITY CLEAR     68  66  93 CALM      29.89S
MEXICO         CLEAR    N/A N/A N/A W3        29.89S
ROLLA          MOCLDY    67  65  93 W5        29.92R
OSAGE BEACH    MOCLDY    70  64  83 W5        29.92S
SPRINGFIELD    CLEAR     68  62  81 SW8       29.95S
BRANSON        CLOUDY    66  63  88 CALM      29.98S
NEVADA         CLEAR     68  64  88 SW6       29.96R
JOPLIN         CLEAR     67  63  87 S3        29.97R
WEST PLAINS    CLEAR     67  64  90 W6        29.95S
MALDEN         CLEAR     72  68  88 CALM      29.90R

$$

IAZ060-094-KSZ022-034>040-054-083-096-NEZ052-066-093-301100-
...KANSAS...SOUTHEAST NEBRASKA AND IOWA...

CITY           SKY/WX    TMP DP  RH WIND       PRES   REMARKS
TOPEKA         CLEAR     67  64  90 CALM      29.94R
MANHATTAN      PTCLDY    63  62  97 CALM      29.94F
EMPORIA        CLOUDY    67  60  78 W6        29.96S
CHANUTE        CLEAR     64  62  93 CALM      29.96S
WICHITA        PTCLDY    67  59  75 CALM      29.96F
OMAHA          CLOUDY    68  64  87 SE3       29.90S
LINCOLN        CLEAR     65  62  90 CALM      29.94R FOG
FALLS CITY     CLOUDY    65  63  93 CALM      29.91S
LAMONI         PTCLDY    67  62  84 W8        29.90R
DES MOINES     CLOUDY    67  61  81 NW5       29.86S

$$




USA.gov is the U.S. government's official web portal to all federal, state and local government web resources and services.